Theta_e
300 301 301 301 302 302 302 302 303 303 303 302 302 303 304 304 304 306 306 309 311 314 312 312 313 312 311 313 320 320 323 329 330 334 330 330 330 330 334 337 336 343 342 339 340 341 343 339 340 346 341 339 339 339
300 301 301 301 301 301 301 302 302 302 302 302 302 303 304 304 304 305 307 307 309 313 313 312 311 311 312 313 312 314 319 327 331 333 334 335 331 332 337 339 339 348 344 349 350 348 340 338 336 334 333 335 335 334
302 301 300 301 301 301 301 301 302 302 303 302 302 304 304 304 303 305 306 307 309 312 313 313 313 313 313 312 312 314 320 321 322 322 328 333 340 337 341 341 341 341 338 342 344 341 339 338 334 332 333 335 334 333
301 301 301 300 301 300 300 301 301 302 302 302 303 303 304 303 302 303 306 307 308 311 314 314 312 311 312 311 311 312 313 317 318 319 321 331 335 331 337 340 340 338 339 339 340 338 339 334 332 334 334 331 331 333
301 301 301 301 300 301 301 300 301 302 302 302 303 303 304 303 301 302 305 307 308 311 314 314 313 313 311 312 314 313 315 317 318 320 322 324 329 330 329 331 336 336 338 342 337 337 336 334 330 327 327 327 326 326
301 301 302 301 301 300 299 299 301 302 301 301 301 301 303 301 301 305 312 309 307 305 312 316 315 314 313 313 313 315 316 318 318 319 322 322 321 324 329 328 327 333 334 329 332 333 330 328 328 324 324 325 324 324
301 301 302 302 301 300 300 300 301 301 300 301 301 300 302 300 302 306 309 309 305 306 311 317 316 315 315 316 315 314 315 316 317 318 319 318 320 321 321 324 320 322 323 320 320 323 322 323 322 322 321 322 323 323
301 301 301 302 302 301 300 300 300 300 300 302 301 301 301 300 302 304 305 306 306 306 311 316 318 317 314 314 318 317 317 316 317 318 319 319 321 319 319 323 320 321 321 321 321 321 322 322 322 323 323 323 323 322
301 301 301 301 301 300 300 300 300 300 301 301 301 301 303 305 308 310 309 306 305 308 314 317 316 320 314 318 320 317 320 320 318 316 316 318 319 320 320 319 320 322 323 323 322 323 324 324 324 322 321 321 321 321
301 301 300 301 301 301 301 301 300 300 301 301 301 305 308 309 308 306 307 311 310 312 311 313 314 316 313 316 316 319 319 321 319 318 317 316 328 326 325 324 324 324 323 321 321 322 320 320 320 320 320 319 318 317
301 301 301 302 301 301 301 300 300 301 301 302 306 308 308 308 306 311 313 315 314 315 313 312 312 316 315 319 321 319 320 320 319 319 319 324 333 326 324 323 323 322 321 320 320 319 319 319 319 319 318 318 317 318
302 302 302 302 301 301 301 300 301 302 303 304 305 306 308 309 312 312 313 314 314 313 313 312 313 316 318 318 320 319 319 319 320 321 322 332 327 322 322 321 321 320 321 321 321 321 320 320 319 318 318 319 319 319
301 302 302 301 301 301 301 301 301 303 304 305 306 309 312 311 310 311 312 312 313 315 313 315 314 314 318 316 319 320 318 318 318 319 327 325 322 321 320 320 320 321 321 321 321 320 320 320 320 321 319 320 320 320
301 301 301 301 302 301 301 301 302 303 304 307 308 305 311 312 309 311 312 315 315 315 315 317 316 319 318 316 320 318 319 319 320 321 325 322 320 319 319 321 321 321 321 321 321 321 322 322 322 321 320 321 322 324
301 301 301 302 302 301 302 302 302 303 305 308 309 309 310 310 310 313 314 314 314 315 315 315 316 317 317 316 318 318 318 318 324 324 322 320 320 320 319 321 322 322 322 321 322 324 324 322 324 324 323 324 324 321
302 302 302 301 301 301 301 302 303 305 307 308 309 311 312 312 311 311 313 314 314 315 315 316 318 318 318 318 317 318 317 324 322 321 320 321 321 318 318 320 321 320 319 321 323 323 322 323 323 322 323 321 323 322
303 303 301 301 301 301 302 304 306 308 307 308 309 310 311 314 314 312 314 313 315 315 317 317 316 315 317 316 315 323 322 320 319 320 320 321 322 321 319 317 319 320 319 319 320 322 323 322 322 322 323 323 323 323
303 301 301 301 302 302 305 305 308 307 307 308 311 312 312 314 313 312 313 314 315 317 320 319 319 318 316 316 323 320 320 320 319 320 321 322 322 321 320 320 320 318 317 318 320 322 322 321 324 323 322 321 321 322
302 302 302 303 304 305 307 306 307 308 309 309 310 311 311 312 314 314 313 315 314 314 317 318 318 319 321 321 320 319 318 319 319 321 319 319 319 320 320 320 320 321 320 321 321 321 320 318 318 319 320 321 320 320
301 302 302 302 303 306 308 310 307 309 312 313 311 311 312 311 312 312 312 313 314 314 315 316 316 318 319 318 318 318 318 319 321 321 320 320 319 319 320 320 320 318 319 316 317 316 316 317 317 319 318 318 318 319
302 304 302 305 307 308 309 310 311 312 313 313 314 315 314 312 312 312 311 314 314 311 314 316 317 317 318 317 316 318 320 320 321 322 322 321 320 319 318 318 318 318 318 316 316 316 316 317 316 315 315 316 317 318
303 303 305 305 306 307 307 308 309 310 311 310 312 314 315 316 316 315 315 315 317 315 317 316 316 317 318 318 319 318 318 318 319 321 321 321 320 319 318 318 318 318 318 317 315 314 313 313 314 313 314 314 315 315
303 303 304 305 305 303 304 306 310 309 310 311 312 313 313 314 311 311 313 313 313 314 314 314 314 314 316 317 319 319 317 318 320 321 321 320 320 319 319 318 318 318 318 316 313 312 313 312 313 312 313 313 314 314
301 301 302 303 304 305 304 307 307 308 309 309 310 310 310 311 309 309 309 310 312 317 320 319 319 320 319 319 321 319 319 319 321 320 320 320 318 317 316 316 315 314 314 315 315 315 314 313 313 312 312 312 312 313
301 301 299 302 301 304 308 309 309 308 309 308 307 307 308 308 311 314 318 317 318 319 318 318 319 321 320 320 320 320 319 320 320 318 317 314 314 315 315 315 315 312 311 314 315 314 314 313 313 313 314 314 314 313
305 305 302 308 307 307 308 312 310 309 309 309 310 314 312 314 318 319 320 318 318 319 319 319 320 321 321 320 319 319 316 314 314 316 316 315 314 314 315 315 312 307 307 308 309 308 308 309 309 310 311 312 313 313
317 322 314 312 316 316 320 323 322 323 322 322 321 321 321 319 319 320 317 317 320 317 317 318 317 316 318 317 315 316 314 315 315 314 312 311 311 310 307 307 308 306 306 306 305 306 307 307 307 307 307 307 308 309
325 322 321 321 320 319 320 319 319 318 316 317 317 317 317 318 319 319 320 315 316 316 316 315 315 315 315 314 313 312 312 312 311 310 309 309 308 307 305 305 306 305 304 303 303 304 305 304 304 304 305 305 306 307
320 320 320 320 318 318 318 319 318 316 317 317 318 319 318 318 319 318 317 317 315 315 315 315 313 312 311 311 309 309 309 308 308 310 310 309 308 306 304 303 302 302 302 302 303 303 303 303 302 303 303 306 306 307
319 317 318 319 319 319 318 317 317 317 317 318 318 319 319 319 317 316 316 315 315 315 313 313 311 310 309 309 308 308 307 307 307 307 307 306 305 303 302 301 301 301 301 302 302 302 302 302 301 301 301 303 304 304
321 320 321 320 319 320 318 318 317 317 317 318 318 318 318 318 316 315 315 314 314 314 313 312 310 308 308 308 307 307 307 306 305 305 303 302 301 301 300 300 300 300 302 301 301 301 301 301 300 300 300 301 302 300
322 321 322 321 322 320 320 320 320 319 318 319 319 319 318 317 318 318 314 313 313 313 312 310 309 308 307 306 305 306 304 304 304 302 301 300 300 300 300 300 301 302 302 301 301 301 301 300 300 299 299 300 300 299
322 321 322 323 322 322 321 322 321 321 322 320 320 319 319 319 319 318 313 311 311 311 309 309 308 307 306 305 305 304 303 303 302 301 300 300 299 299 298 298 298 299 300 300 300 299 299 299 298 298 299 298 298 297
Wind_Speed
27 26 25 25 24 22 21 21 19 18 17 17 16 16 16 17 17 18 19 12 10 5 13 7 8 8 10 7 5 9 9 7 5 2 1 3 4 6 4 6 10 6 3 1 3 4 4 20 12 5 3 6 9 7
27 25 24 24 23 21 21 20 17 17 16 15 15 16 15 15 15 15 10 18 20 4 7 27 26 21 15 8 6 5 4 6 4 4 5 4 4 3 1 4 7 5 5 2 2 5 5 10 6 14 15 9 9 8
27 25 23 23 22 21 20 18 16 15 15 14 14 14 14 14 13 12 14 17 14 4 8 7 10 18 9 7 7 2 3 6 4 3 3 3 4 5 4 4 4 5 3 4 2 5 4 6 11 14 14 12 7 8
25 24 22 20 18 16 15 14 14 13 13 13 13 14 14 14 13 13 12 16 12 5 4 1 7 1 3 6 6 7 10 7 5 3 2 3 3 6 4 4 3 2 1 2 4 7 5 6 5 4 8 12 16 12
21 21 24 21 18 16 16 14 14 12 13 12 12 13 13 13 14 16 17 17 16 8 4 6 16 11 4 2 8 6 4 3 3 3 2 3 1 5 5 2 3 3 6 4 3 1 4 6 9 8 9 8 9 9
19 19 18 17 16 15 14 13 13 11 11 11 11 13 12 12 13 9 2 6 4 8 3 3 2 5 9 6 2 6 3 4 2 2 2 4 3 3 2 6 6 6 11 14 7 14 10 12 5 7 5 7 5 6
18 14 12 15 15 14 13 12 11 11 11 11 11 13 12 11 10 6 4 5 9 11 2 4 2 4 14 7 3 3 4 3 2 2 2 1 3 3 3 1 5 9 9 9 8 9 7 9 5 8 8 9 10 10
13 11 10 11 12 12 10 10 10 9 8 8 10 11 12 13 13 11 11 11 9 6 3 3 4 4 8 3 3 4 3 2 2 2 2 2 2 2 1 2 7 8 8 9 10 9 6 3 2 4 5 6 7 7
13 13 11 9 9 9 6 7 6 5 5 5 7 9 6 4 4 2 4 4 6 4 3 3 3 2 4 3 3 1 2 3 3 2 2 2 2 1 5 2 6 8 8 8 9 7 7 6 6 6 7 8 6 7
10 12 9 8 9 7 7 8 7 5 4 3 3 4 2 4 6 3 2 3 3 4 3 3 3 3 3 1 3 3 2 2 3 4 2 2 6 18 20 17 13 12 10 11 10 8 8 8 8 9 7 7 7 8
6 8 8 9 10 8 9 9 8 5 4 2 3 2 7 5 3 3 2 3 4 3 4 3 4 4 4 4 3 3 2 3 0 3 5 2 4 11 15 17 17 17 15 13 11 9 9 8 7 7 7 8 8 11
2 5 9 8 8 11 9 10 10 8 1 5 6 8 5 3 1 3 3 3 4 4 4 4 3 2 2 2 2 3 3 3 2 3 2 4 4 9 12 14 14 14 14 14 14 12 12 11 10 8 10 10 10 16
4 7 9 10 9 10 10 9 13 2 9 2 2 3 2 0 1 4 4 3 3 2 0 3 2 1 1 2 2 3 2 2 3 4 4 3 6 7 9 9 10 8 10 7 9 12 15 16 18 15 8 17 20 16
7 13 13 9 8 9 10 10 10 1 3 2 2 3 3 3 4 3 5 6 4 4 3 2 3 2 2 1 1 2 2 3 3 2 3 3 6 8 9 9 8 10 11 12 12 14 14 14 14 18 18 18 19 13
12 11 10 9 9 9 11 15 6 1 3 3 3 3 4 5 2 2 2 5 4 5 4 1 2 1 1 1 2 4 1 1 6 3 2 3 5 7 7 9 9 8 8 8 10 10 10 12 12 13 14 10 12 10
15 13 9 12 10 10 15 10 2 3 3 2 3 4 5 4 6 2 8 5 3 2 2 2 1 2 2 2 2 3 4 5 3 3 2 3 3 3 4 6 6 7 8 8 10 10 11 10 8 7 10 7 4 6
6 4 9 8 7 11 9 3 2 3 3 3 1 4 4 3 6 5 8 5 5 2 3 2 1 2 2 1 2 4 3 2 1 3 2 2 3 5 4 5 8 9 9 10 12 12 11 7 7 10 7 10 9 7
15 12 9 10 10 3 3 3 3 3 3 4 3 4 1 3 3 4 6 5 5 3 3 3 4 3 2 1 3 3 3 3 2 2 2 3 4 6 10 6 11 13 15 17 16 19 14 13 6 2 3 4 6 6
13 15 14 9 3 4 3 2 3 3 2 3 4 7 3 3 3 3 5 6 4 2 3 2 3 4 3 3 3 4 2 3 3 3 3 6 11 11 14 14 16 16 15 18 16 10 8 6 2 0 2 0 3 3
15 10 3 7 10 3 3 2 3 3 2 2 4 7 2 1 2 2 3 1 1 1 2 1 2 3 3 3 3 2 2 3 2 3 4 4 13 9 9 12 13 19 12 5 9 9 10 10 14 13 8 6 4 5
1 4 6 10 3 4 3 3 3 3 3 2 3 1 3 1 0 1 2 1 2 1 1 2 3 4 5 6 7 9 6 3 2 2 4 5 9 13 13 14 13 15 7 6 4 7 12 8 7 12 8 5 8 4
4 2 4 4 3 6 2 5 3 5 3 4 5 5 3 4 4 5 7 2 4 3 3 3 3 3 3 4 5 9 9 8 10 12 15 11 6 4 6 13 13 7 11 9 1 5 9 10 10 9 5 4 7 13
2 2 3 3 2 2 3 9 2 3 2 3 3 1 3 2 4 6 2 2 3 2 5 4 6 8 8 11 11 12 13 13 9 10 12 13 15 19 18 19 18 10 5 6 1 4 5 8 5 10 12 14 16 15
1 3 2 1 1 2 2 1 1 1 1 2 3 2 2 3 3 3 2 2 3 5 2 1 1 2 5 6 4 8 15 13 12 14 17 13 4 7 8 10 8 14 16 14 5 6 7 7 8 9 11 13 13 12
1 3 3 4 3 2 3 2 2 1 1 1 2 2 2 2 2 1 3 3 2 2 2 2 4 4 6 7 5 13 17 13 9 4 2 6 10 13 13 12 12 21 25 20 15 14 14 16 16 17 17 16 15 13
5 6 9 9 6 5 6 6 8 8 5 7 7 3 4 3 3 2 3 5 5 6 7 7 8 7 9 13 4 2 4 3 1 7 13 11 14 10 6 4 7 16 24 23 21 20 19 18 18 19 18 19 22 20
5 6 7 6 5 5 6 5 6 5 10 6 5 8 6 2 3 2 6 3 3 6 12 14 3 8 3 9 3 8 15 16 12 14 17 18 18 19 18 13 11 17 19 22 23 23 20 19 19 20 20 21 20 21
3 6 11 6 6 9 13 12 12 10 6 3 2 4 3 2 3 1 2 6 7 5 12 9 7 4 17 18 18 18 17 17 17 18 17 17 18 17 22 20 20 23 23 24 25 24 18 18 19 20 21 22 24 22
6 9 9 11 8 6 7 10 11 8 8 9 11 8 3 1 4 3 2 9 14 15 14 14 17 20 21 20 21 21 20 20 17 13 12 8 6 15 18 18 20 21 21 22 23 21 25 25 24 25 23 19 23 23
7 5 7 9 9 8 5 7 8 8 8 8 6 5 6 6 9 10 13 15 15 12 15 16 18 18 14 15 15 18 20 22 20 15 7 7 10 17 19 20 20 20 22 19 19 22 22 22 21 21 22 21 15 16
7 5 7 5 3 5 5 7 9 6 4 4 8 8 7 6 13 15 13 13 12 10 9 11 14 16 15 16 15 14 11 18 19 16 16 14 15 16 17 19 21 21 15 19 20 18 20 17 16 18 20 21 21 20
4 4 3 1 4 4 5 6 6 2 4 3 4 7 4 6 3 4 15 15 14 13 14 16 14 14 16 16 18 18 19 19 18 12 14 12 12 11 14 16 16 18 18 18 22 21 21 21 16 14 13 14 15 14
5 3 5 7 2 3 1 4 5 5 1 4 5 3 3 6 7 3 11 15 12 11 13 12 14 13 16 19 20 20 19 17 19 23 22 14 9 20 20 18 18 17 19 20 17 19 22 24 24 24 16 14 13 13
Wind_Direction
288 285 284 282 282 282 283 281 282 285 285 288 294 304 313 321 326 336 291 314 293 293 290 256 312 324 328 4 348 325 319 7 0 13 226 233 229 252 284 162 169 163 170 217 114 97 265 354 312 97 216 62 95 83
288 285 283 281 280 280 279 277 277 280 284 287 290 296 302 314 322 333 289 313 331 258 279 295 288 280 276 299 301 331 296 6 1 355 15 317 291 304 102 114 307 41 339 61 99 125 114 251 39 360 28 42 23 42
285 282 281 278 278 280 277 273 270 276 282 286 291 294 296 307 316 321 302 307 314 266 282 237 251 259 241 302 312 340 354 358 6 321 299 284 313 348 27 33 92 100 267 138 130 13 322 345 51 44 11 9 355 336
281 280 277 277 273 276 278 273 270 270 274 282 290 292 295 303 311 309 296 295 311 275 274 17 125 61 232 307 282 275 281 317 294 277 268 282 328 7 34 201 112 168 101 56 70 35 18 0 353 185 93 65 355 346
284 276 270 267 271 268 269 274 265 267 273 278 285 288 295 303 311 304 291 276 270 275 304 298 312 243 198 245 297 242 299 329 310 331 323 277 31 5 317 40 97 197 164 127 156 258 106 280 287 54 36 32 45 350
273 279 267 253 263 260 261 262 261 262 267 276 283 288 291 305 317 315 268 178 10 8 280 285 21 156 173 190 258 320 269 232 242 332 301 314 16 59 10 78 65 77 114 134 170 175 178 233 199 51 22 16 22 334
271 271 257 261 258 261 257 253 251 253 267 277 276 290 290 300 302 259 278 294 335 343 260 283 257 151 176 185 209 217 251 277 217 242 238 326 25 49 10 354 38 82 103 76 79 96 76 20 17 20 12 356 346 326
254 252 266 277 249 254 252 247 243 259 262 272 281 290 294 297 283 268 264 264 265 260 267 277 266 138 176 204 213 194 181 223 286 277 321 100 54 88 90 44 85 91 90 81 68 73 105 111 64 18 347 348 359 345
245 251 263 259 236 236 230 223 224 233 246 265 293 297 305 232 245 257 233 247 231 275 305 295 290 9 178 241 141 141 220 195 173 194 279 106 169 136 201 156 103 89 80 77 67 63 39 42 31 25 24 4 357 335
244 244 252 235 216 211 209 199 206 213 238 274 312 250 252 231 219 268 206 195 204 201 225 253 271 299 338 281 209 161 181 247 172 210 172 167 82 21 22 46 48 50 56 51 52 31 24 17 8 357 349 343 342 336
246 225 241 223 201 199 188 189 188 186 166 235 236 234 263 249 260 235 227 219 196 210 204 233 253 295 20 23 322 44 316 300 340 207 163 120 55 13 10 20 22 23 22 24 22 14 5 358 347 338 331 327 322 315
195 194 181 187 180 179 180 178 171 175 14 325 300 287 282 232 287 275 219 244 207 226 181 198 223 37 29 329 318 345 327 343 359 305 8 72 15 15 10 8 10 4 359 358 359 351 339 326 314 310 315 309 305 311
95 149 150 151 157 173 174 169 177 194 358 30 301 272 323 177 132 225 210 206 216 167 338 90 68 80 83 330 336 355 318 289 3 356 68 45 344 359 357 348 349 347 351 345 347 343 337 329 320 322 306 310 297 307
98 125 139 139 138 141 150 166 167 167 340 295 299 329 216 228 216 268 7 26 10 104 75 353 104 43 21 314 304 220 355 344 305 57 66 20 4 347 344 340 342 359 351 352 347 336 330 324 318 320 305 310 307 330
121 122 126 131 140 135 138 143 135 348 266 253 238 269 227 284 44 146 48 88 349 48 76 68 34 1 215 64 290 24 183 311 41 70 81 63 352 350 350 335 349 345 351 329 330 338 341 349 338 328 325 353 50 27
102 96 109 126 128 135 148 149 189 263 255 257 257 312 337 351 250 175 88 26 69 60 41 24 60 321 63 351 332 2 314 52 72 27 56 78 360 6 347 346 340 348 336 337 332 348 342 327 349 6 39 19 9 186
45 101 133 116 122 141 153 274 257 243 286 294 148 44 294 340 310 351 93 49 332 8 19 336 244 35 206 48 68 32 56 91 8 338 54 132 360 336 330 311 304 308 297 313 317 313 306 331 343 21 14 24 36 41
100 122 120 110 112 108 283 253 270 280 274 243 43 27 46 240 355 351 62 51 40 30 356 11 297 316 6 29 51 73 51 9 17 61 326 25 350 294 284 282 287 288 292 299 284 286 293 304 294 332 357 5 15 36
113 122 119 69 32 313 277 251 246 303 333 336 314 168 225 203 233 358 73 89 90 346 285 311 325 19 31 41 49 53 11 32 330 353 328 294 270 264 274 290 288 285 281 275 274 271 272 249 195 111 320 148 41 15
122 126 115 348 344 291 274 249 217 268 327 280 352 348 355 99 251 114 115 61 43 254 283 50 55 69 83 51 18 340 328 345 331 310 305 318 327 317 289 269 266 283 286 321 319 286 317 276 261 222 201 192 187 260
90 303 320 348 315 240 296 331 331 356 324 8 296 244 312 343 249 165 92 180 229 174 297 124 65 66 60 15 328 319 315 305 285 253 275 294 293 297 293 310 309 303 287 302 292 301 308 335 39 20 357 351 189 201
7 6 325 340 285 356 302 26 311 301 341 330 340 343 11 345 18 16 318 318 337 28 49 10 18 346 12 300 280 311 314 308 291 270 276 263 272 278 290 282 287 277 274 269 35 320 319 332 334 330 338 340 254 270
355 10 351 335 331 15 281 333 291 19 343 351 299 344 30 26 11 324 351 341 305 293 280 271 276 289 273 296 305 292 271 268 276 266 262 260 261 265 263 267 276 288 282 175 148 301 322 4 33 334 303 287 279 275
31 31 355 319 255 272 313 286 17 343 4 3 24 12 3 24 356 30 302 286 262 284 298 119 32 344 318 288 260 262 271 259 252 262 265 266 260 281 280 276 340 353 344 15 6 1 335 323 302 289 302 307 323 328
145 198 165 207 217 227 222 184 145 93 40 92 5 286 246 168 214 226 343 299 284 257 247 216 238 237 251 266 259 252 260 248 240 250 187 330 310 311 330 342 348 33 17 9 7 1 347 334 327 326 328 322 304 284
231 195 191 199 169 200 197 184 184 186 181 188 224 209 157 194 166 236 205 215 223 229 228 231 241 245 229 231 265 289 320 327 14 335 329 17 17 3 2 17 25 15 8 1 359 3 356 347 342 338 336 337 338 348
262 179 197 209 185 181 205 198 171 183 181 171 173 176 187 80 60 37 42 303 198 205 252 237 263 330 5 116 276 304 20 25 54 28 22 19 14 33 32 21 25 17 11 3 355 348 341 347 348 344 338 333 326 319
288 22 45 74 77 53 64 74 68 60 69 56 110 48 66 90 42 323 205 224 281 312 63 113 163 258 49 41 37 26 11 2 17 18 13 7 1 17 14 6 4 4 1 353 340 336 347 352 347 341 335 327 314 314
40 47 43 41 34 64 70 87 96 95 91 84 85 88 64 51 155 184 344 27 42 41 32 33 37 36 29 24 24 12 9 20 10 359 356 349 358 2 2 6 0 354 347 333 329 344 347 347 347 341 339 6 24 32
48 46 55 42 42 60 65 76 96 105 104 113 113 119 115 103 85 62 44 36 31 51 37 36 38 33 23 22 6 3 8 8 358 5 15 359 355 358 1 355 345 337 326 328 349 341 335 342 347 349 345 346 17 26
71 44 348 339 46 16 25 81 99 88 107 108 114 108 113 118 85 66 56 57 33 27 40 48 36 22 26 16 5 360 354 353 348 358 11 3 350 346 344 337 327 320 339 354 333 332 333 337 350 348 341 351 12 18
316 131 161 302 316 329 330 33 103 194 128 133 121 128 154 102 110 71 57 46 26 12 41 43 30 18 30 11 1 348 349 342 341 4 359 351 350 349 337 329 331 339 342 338 325 326 332 338 341 347 19 354 351 360
289 181 201 153 232 308 168 47 26 333 298 101 13 322 136 125 80 88 73 43 12 58 54 32 12 18 16 8 352 348 342 341 3 357 349 353 358 348 343 331 328 334 332 319 326 354 347 346 351 351 356 6 358 351